Pagina principală
METAR-TAF:

METAR-TAF

Aeroporturi :

Puerto Suárez, Bolivia

Latitudine: 18-59S, longitudine: 057-49W, elevație: 134 m

Observații meteo curente

Raportul a fost făcut în urmă cu 7 ore și 25 de minute, la 22:00 UTC
Vânt calm
Temperatură 33°C
Umiditate 63%
Presiune 1009 hPa
Vizibilitate de 10 km sau mai mult

METAR: SLPS 242200Z 00000KT 9999 NSC 33/25 Q1009

Ora: 01:25 (05:25 UTC)


TAF: lipsă

Observații și prognoze meteo pentru peste 4.000 de aeroporturi (rapoarte METAR și TAF).

Stațiile disponibile sunt reprezentate pe hartă prin puncte galbene și roșii.

Țineți indicatorul mouse-ului pe punctul dorit pentru a vedea denumirea stației.

Apoi, faceți clic pentru a vedea observațiile și prognozele meteorologice.

Pentru a schimba harta: Pentru mărire, faceți clic pe butoanele verzi cu cruce neagră; pentru micșorare, pe butonul verde cu o liniuță; pentru hărți învecinate, pe săgețile verzi.


METAR-TAF: